sat.trackr.live / text

‹ back to catalog

STARLINK-37389

NORAD 68778 · 2026-086N

PAYLOAD ACTIVE UNKNOWN

§ Identity

Operator
Country
US
Launch date
2026-04-19
Launch site
AFWTR
Launch vehicle
Mass (kg)
RCS (m²)

Purposes: comms

External: N2YO · Heavens-Above · Gunter

§ Orbital elements

Epoch: 2026-05-25T04:00:03.998880Z

Period
92.18 min
Inclination
97.2846°
Eccentricity
0.0001566
Mean motion
15.62158780 rev/d
Perigee alt
380.4 km
Apogee alt
382.5 km
Semi-major
6,759.6 km
B*
-2.4519e-2
RAAN
182.0106°
Arg perigee
99.7199°
Mean anomaly
216.6134°
Rev number
607

§ Raw data

STARLINK-373891 68778U 26086N   26145.16671295 -.01901918  00000+0 -24519-1 0  99952 68778  97.2846 182.0106 0001566  99.7199 216.6134 15.62158780  6073

JSON: /api/v1/satellites/68778 · /tle

For live sub-satellite position, see the globe view (requires WebGL).

§ Visibility from observer

Set your observer location to see the next 7 days of passes ≥ 10°. The values pass through the URL so the page stays shareable.

No JS? Fill the form by hand. The geolocation button needs JavaScript.